Temp
19 16 13 11 9 11 10 10 10 10 10 9 9 9 9 9 8 8 10 10 10 9 11 12 12 11 10 10 11 11 11 11 11 11 11 10 10 10 10 10 10 9 10
19 16 13 11 9 10 11 10 10 10 10 10 9 9 9 9 9 9 9 10 10 10 12 11 11 12 11 10 10 10 10 10 10 11 11 11 10 10 11 10 10 10 9
19 17 14 12 10 9 10 10 10 10 10 10 9 9 9 8 8 9 9 10 9 10 11 11 12 11 11 10 10 10 10 11 11 11 11 11 12 12 11 11 11 10 10
19 18 15 13 11 9 10 10 10 10 9 9 9 9 9 9 9 10 10 10 10 12 12 11 11 11 10 10 10 11 11 11 10 11 11 12 11 12 12 11 11 10 9
20 18 16 15 13 10 10 10 10 10 10 9 9 9 10 9 9 9 10 9 9 10 11 11 11 11 10 11 11 11 11 11 10 11 11 10 11 11 11 12 11 10 9
21 19 17 16 14 12 9 10 10 10 10 10 9 10 10 9 9 9 9 9 10 10 10 11 11 11 10 11 11 10 10 10 11 10 10 11 11 11 11 11 11 10 10
21 19 18 16 15 13 11 10 9 9 10 10 10 9 9 9 10 9 9 9 10 10 11 10 10 10 10 9 10 11 11 10 11 10 10 10 10 10 10 10 10 10 10
21 20 19 17 16 14 12 11 10 9 9 9 10 10 9 9 10 9 9 9 11 11 11 11 10 10 10 11 10 11 10 11 11 11 10 10 10 10 10 10 11 11 9
22 20 19 18 16 15 13 12 11 11 9 9 9 10 9 9 9 9 9 9 11 11 11 11 11 11 11 10 10 10 10 11 11 11 10 10 10 10 10 10 10 10 8
22 21 20 18 17 15 14 12 12 12 12 9 9 9 9 9 9 9 9 9 10 11 11 11 11 11 10 10 10 10 10 10 10 10 10 10 10 10 10 10 10 9 9
22 21 20 19 17 16 14 13 12 13 13 11 10 9 9 9 9 9 9 9 9 10 11 11 11 11 10 10 10 11 10 10 10 10 10 10 10 10 9 9 9 8 8
22 21 20 19 17 16 15 14 13 13 13 12 11 10 10 10 10 10 10 10 10 9 10 10 10 10 10 10 10 10 10 10 10 10 10 10 10 10 10 9 10 8 8
22 22 20 20 18 17 16 15 14 13 13 13 12 11 11 10 10 10 10 10 10 10 10 10 10 10 10 10 10 10 10 10 10 10 10 9 10 10 10 9 8 8 8
22 22 21 20 19 18 17 16 15 14 13 13 13 12 11 11 11 10 10 10 10 10 10 10 10 10 10 10 10 10 10 10 10 9 9 9 10 10 11 10 9 9 8
22 22 22 21 20 19 18 17 16 15 13 13 13 13 12 12 11 11 10 10 10 10 10 10 10 10 10 10 10 10 10 10 10 9 9 9 10 11 11 10 10 9 9
22 21 21 21 22 21 19 18 17 16 14 13 13 13 12 12 11 11 10 10 10 10 10 11 10 10 10 10 10 10 10 9 9 9 9 9 10 10 10 10 9 9 8
18 18 19 20 20 20 21 19 18 17 15 14 14 13 13 12 12 11 11 11 11 10 10 10 10 10 10 11 11 10 9 9 9 9 10 9 9 9 9 9 8 7 6
15 16 17 18 18 18 18 18 19 18 16 15 14 14 13 13 12 11 11 11 10 10 10 10 10 9 10 9 9 9 9 8 8 8 8 9 9 9 8 8 7 5 4
14 13 14 14 15 15 15 16 17 19 18 16 15 15 14 13 13 12 12 11 10 10 10 10 9 9 9 9 9 9 8 8 8 8 8 8 8 8 8 7 6 4 1
13 12 12 12 10 10 13 13 14 15 16 18 17 16 15 14 13 13 12 11 11 10 10 10 9 9 9 9 9 9 9 9 9 8 8 7 7 6 5 3 3 2 1
13 12 11 9 8 10 11 11 12 13 14 14 15 15 15 14 14 13 12 11 10 10 10 9 9 9 9 9 9 9 9 8 7 7 6 4 3 2 1 0 -0 -1 -1
12 11 10 8 7 8 8 9 10 10 11 11 12 13 13 13 12 12 12 11 10 10 10 9 9 9 8 9 8 8 7 6 4 4 2 1 -0 -1 -1 -1 -2 -3 -3
9 8 8 6 8 7 7 7 7 8 8 8 9 10 10 10 10 10 10 9 9 9 9 8 8 7 6 7 5 3 2 2 1 0 -1 -2 -2 -2 -2 -3 -3 -3 -4
5 4 5 3 7 7 6 6 5 6 7 7 7 7 8 8 8 9 8 9 8 7 7 6 6 4 3 3 2 1 1 0 -0 -1 -2 -3 -3 -3 -3 -4 -5 -6 -6
1 0 -0 -0 3 4 5 6 6 5 5 5 5 4 4 5 5 5 4 5 4 5 5 4 3 1 0 -1 -0 -1 -2 -2 -2 -3 -4 -4 -5 -5 -6 -7 -7 -8 -8
-3 -2 -2 -3 -0 2 2 3 4 4 5 5 5 4 1 0 0 1 1 1 1 1 0 -0 -0 -2 -4 -4 -4 -4 -4 -5 -5 -5 -6 -6 -7 -8 -9 -10 -11 -11 -12
Height
1441 1444 1446 1447 1446 1448 1451 1454 1458 1462 1465 1468 1472 1475 1480 1485 1491 1498 1506 1514 1520 1523 1527 1533 1536 1542 1546 1549 1554 1557 1560 1562 1565 1568 1570 1571 1571 1571 1573 1573 1574 1576 1577
1437 1441 1443 1444 1444 1446 1449 1452 1457 1460 1464 1468 1472 1476 1480 1486 1493 1499 1507 1514 1519 1522 1525 1530 1535 1539 1545 1549 1551 1553 1555 1559 1560 1563 1567 1568 1570 1568 1568 1570 1570 1571 1573
1432 1437 1440 1442 1441 1444 1447 1450 1454 1458 1462 1467 1471 1476 1482 1488 1494 1499 1503 1508 1513 1517 1523 1527 1532 1538 1543 1546 1547 1549 1552 1554 1556 1559 1563 1563 1563 1562 1563 1564 1565 1566 1567
1426 1431 1435 1438 1439 1440 1445 1449 1453 1457 1460 1465 1469 1473 1478 1483 1488 1495 1500 1505 1510 1514 1519 1525 1531 1535 1539 1541 1543 1546 1548 1551 1554 1556 1557 1558 1560 1559 1560 1561 1560 1562 1562
1421 1425 1430 1434 1436 1437 1441 1445 1450 1454 1458 1462 1466 1470 1476 1483 1487 1493 1498 1503 1508 1513 1517 1522 1527 1530 1533 1536 1539 1543 1544 1547 1551 1552 1554 1555 1556 1557 1558 1558 1558 1558 1559
1415 1422 1427 1432 1436 1438 1438 1442 1446 1450 1455 1458 1462 1466 1473 1478 1483 1489 1495 1499 1503 1508 1513 1517 1521 1526 1530 1533 1537 1539 1541 1544 1545 1548 1550 1550 1552 1553 1553 1553 1553 1553 1553
1411 1416 1422 1427 1430 1434 1437 1439 1442 1445 1450 1454 1458 1463 1468 1472 1477 1482 1487 1492 1495 1500 1507 1511 1515 1520 1525 1529 1532 1534 1537 1539 1539 1542 1544 1545 1544 1547 1547 1548 1546 1545 1544
1406 1412 1417 1422 1427 1430 1434 1437 1440 1442 1444 1448 1453 1458 1463 1468 1472 1478 1482 1485 1488 1494 1501 1506 1510 1516 1520 1522 1526 1528 1531 1532 1533 1534 1537 1539 1538 1540 1540 1539 1538 1534 1534
1401 1407 1413 1418 1423 1427 1429 1433 1437 1441 1441 1442 1447 1452 1457 1462 1467 1471 1474 1478 1483 1489 1494 1499 1503 1508 1513 1516 1520 1522 1523 1524 1525 1527 1530 1531 1530 1530 1531 1530 1529 1529 1528
1397 1403 1408 1414 1418 1422 1426 1429 1432 1436 1439 1440 1442 1446 1452 1457 1462 1466 1468 1472 1476 1482 1487 1491 1495 1500 1503 1508 1512 1513 1515 1516 1517 1518 1520 1521 1521 1521 1521 1520 1520 1520 1519
1395 1400 1405 1410 1415 1417 1420 1424 1427 1431 1435 1438 1440 1442 1446 1452 1457 1460 1464 1467 1471 1474 1478 1482 1487 1491 1495 1499 1502 1504 1506 1508 1509 1510 1510 1511 1511 1511 1512 1513 1511 1510 1510
1395 1399 1402 1406 1410 1413 1416 1417 1421 1425 1430 1434 1437 1439 1442 1446 1449 1451 1457 1462 1465 1469 1472 1477 1480 1483 1486 1490 1493 1495 1497 1498 1499 1500 1501 1499 1500 1502 1502 1503 1501 1501 1500
1395 1397 1400 1403 1406 1409 1412 1414 1416 1418 1424 1428 1431 1433 1435 1439 1441 1445 1450 1455 1459 1462 1467 1471 1473 1475 1478 1481 1483 1485 1486 1487 1488 1489 1491 1489 1491 1491 1492 1490 1490 1489 1487
1393 1395 1398 1400 1403 1405 1408 1410 1413 1415 1418 1421 1423 1425 1426 1427 1431 1437 1441 1445 1449 1452 1456 1458 1462 1465 1469 1472 1474 1475 1476 1477 1477 1479 1480 1479 1478 1479 1480 1478 1477 1476 1476
1392 1393 1395 1397 1399 1401 1403 1405 1407 1409 1412 1414 1415 1415 1418 1422 1427 1428 1431 1435 1438 1442 1446 1450 1451 1454 1456 1458 1460 1463 1465 1467 1468 1468 1466 1466 1466 1467 1469 1468 1466 1465 1463
1391 1393 1393 1393 1393 1396 1398 1400 1401 1402 1405 1406 1404 1411 1414 1415 1417 1420 1423 1427 1429 1430 1433 1435 1438 1442 1444 1446 1448 1452 1455 1455 1456 1456 1456 1456 1457 1457 1456 1456 1455 1454 1452
1397 1397 1395 1393 1393 1392 1393 1395 1396 1399 1399 1398 1400 1402 1404 1407 1408 1413 1415 1415 1417 1422 1423 1425 1428 1429 1431 1432 1435 1439 1442 1445 1445 1445 1445 1443 1444 1444 1442 1444 1443 1440 1443
1401 1398 1395 1393 1393 1392 1391 1389 1390 1391 1393 1393 1394 1396 1397 1397 1399 1403 1404 1407 1409 1410 1412 1414 1417 1420 1421 1424 1427 1431 1433 1434 1434 1435 1433 1432 1433 1433 1433 1434 1433 1433 1433
1400 1398 1395 1392 1390 1389 1388 1386 1385 1386 1387 1387 1388 1388 1389 1391 1392 1392 1393 1396 1400 1402 1403 1408 1411 1412 1414 1417 1419 1422 1423 1423 1422 1422 1422 1421 1421 1420 1421 1423 1423 1425 1428
1398 1396 1394 1391 1388 1384 1381 1380 1380 1380 1380 1382 1383 1385 1387 1388 1388 1387 1388 1389 1392 1395 1398 1398 1399 1401 1406 1408 1410 1410 1411 1412 1413 1413 1412 1412 1413 1413 1414 1416 1417 1420 1423
1399 1396 1393 1391 1387 1381 1379 1380 1378 1375 1374 1376 1376 1378 1380 1381 1383 1384 1386 1386 1385 1385 1389 1390 1392 1393 1393 1398 1402 1401 1402 1402 1403 1403 1403 1403 1404 1407 1410 1414 1415 1420 1423
1398 1396 1393 1389 1384 1381 1380 1378 1374 1372 1369 1371 1370 1369 1370 1371 1373 1374 1373 1377 1378 1380 1382 1385 1386 1388 1387 1384 1393 1394 1393 1394 1396 1397 1399 1401 1404 1408 1413 1414 1415 1419 1422
1399 1397 1394 1389 1384 1380 1378 1376 1375 1373 1369 1366 1366 1366 1367 1368 1370 1371 1371 1374 1376 1376 1376 1378 1377 1385 1382 1377 1385 1389 1389 1390 1393 1394 1397 1403 1406 1408 1410 1415 1417 1420 1421
1400 1398 1394 1389 1385 1382 1380 1378 1376 1374 1369 1367 1366 1364 1363 1364 1365 1366 1367 1365 1372 1371 1371 1373 1372 1379 1379 1375 1379 1388 1388 1388 1391 1393 1397 1403 1406 1411 1411 1413 1416 1420 1423
1400 1397 1394 1390 1387 1385 1382 1379 1377 1377 1375 1371 1370 1368 1364 1364 1362 1363 1365 1363 1367 1367 1369 1371 1373 1378 1378 1377 1378 1388 1391 1391 1394 1398 1400 1403 1407 1409 1413 1416 1418 1420 1422
1402 1398 1395 1392 1389 1387 1385 1381 1379 1376 1377 1378 1375 1377 1370 1367 1365 1365 1364 1366 1368 1368 1371 1374 1375 1377 1383 1382 1382 1388 1397 1399 1398 1401 1403 1405 1409 1413 1415 1418 1420 1421 1422
Wind_Speed
12 13 12 11 11 16 17 18 20 13 13 17 25 27 32 36 37 42 39 38 30 37 35 28 26 25 25 20 21 20 19 16 15 13 12 12 16 15 14 14 14 14 15
16 15 13 12 12 16 17 20 21 22 19 21 26 25 31 37 39 42 42 30 28 31 32 30 32 29 29 23 24 22 20 17 21 16 15 12 11 17 19 17 17 18 17
19 18 17 15 14 20 22 24 22 19 21 24 25 27 28 35 40 46 40 34 30 33 38 32 40 35 32 25 24 23 21 21 20 20 11 8 10 16 14 17 22 20 21
20 21 20 19 18 22 25 24 26 21 24 28 27 31 31 34 44 50 44 35 36 40 41 40 33 32 30 22 23 25 24 21 19 16 20 19 14 11 7 13 15 20 22
21 23 22 20 19 22 27 26 28 28 26 28 28 37 35 30 35 48 45 37 36 36 40 41 36 37 31 31 30 28 25 21 19 20 16 13 15 16 16 18 13 14 17
21 22 21 20 19 20 23 25 27 30 31 33 28 31 36 32 39 40 41 46 44 42 36 37 37 37 35 32 29 26 23 23 20 21 21 19 16 16 18 20 21 20 22
23 24 25 24 23 24 23 24 27 28 35 35 32 30 36 38 46 41 38 45 50 49 45 37 40 41 39 33 31 32 33 28 25 27 27 24 24 24 24 23 25 28 33
24 26 27 26 24 24 25 24 25 26 28 36 38 33 35 34 39 41 34 45 56 55 53 42 42 44 41 38 36 35 34 36 36 35 32 30 26 26 29 32 32 34 35
24 26 27 27 25 25 25 25 24 24 26 28 38 38 35 37 40 40 44 39 48 49 51 49 46 46 49 45 40 37 36 41 39 40 35 33 33 32 35 36 38 38 29
20 25 28 27 26 25 25 25 24 24 25 25 29 37 39 39 34 35 42 45 43 48 50 49 54 57 57 51 50 48 44 40 39 42 39 35 35 32 35 36 36 35 37
13 22 25 27 26 25 26 26 26 26 27 27 27 31 36 37 39 37 39 37 41 49 50 50 50 49 50 53 49 47 44 41 40 39 39 38 39 39 36 38 39 33 39
9 16 21 25 27 28 27 29 28 29 29 28 29 30 32 35 39 40 40 39 39 40 44 43 44 48 47 47 48 46 45 45 43 42 38 42 44 39 37 36 38 36 31
4 9 16 22 26 28 28 29 30 31 29 30 31 32 34 35 40 43 42 40 41 40 43 43 48 47 47 47 47 47 48 47 46 44 43 47 51 45 43 42 44 45 41
4 4 9 15 20 25 28 29 30 30 31 32 33 35 39 41 42 41 40 44 44 44 47 47 48 47 48 48 47 47 47 48 47 47 47 53 55 52 50 52 49 51 48
7 9 10 12 16 20 25 28 29 30 31 33 34 39 41 39 35 39 41 43 44 47 45 46 48 51 50 50 50 49 49 50 50 50 55 57 56 55 54 48 49 47 48
12 11 15 13 17 18 21 24 28 33 31 36 42 37 37 38 40 41 42 42 44 46 48 48 47 49 51 53 54 52 47 46 46 48 47 45 45 49 51 46 44 47 44
14 15 14 13 11 12 14 21 25 25 33 38 36 37 39 40 42 41 41 43 45 44 48 49 48 50 50 51 51 50 48 48 44 46 50 50 51 44 38 41 44 42 39
17 15 14 13 12 12 10 14 18 23 28 32 34 36 38 41 40 39 42 42 42 44 45 45 45 43 44 43 44 43 43 46 50 52 54 50 46 42 40 39 39 41 39
18 18 17 15 14 13 12 11 12 19 24 29 35 34 37 38 39 41 43 42 41 41 41 39 38 39 39 38 38 38 42 44 45 46 47 46 44 42 40 39 40 38 30
19 21 20 15 14 14 15 15 12 13 19 25 28 27 31 34 35 37 37 37 35 34 32 34 34 36 36 38 38 36 37 40 40 40 41 41 38 35 32 28 29 28 25
15 17 18 17 18 20 15 13 9 7 10 17 21 22 25 28 30 29 29 29 32 36 35 35 34 32 31 34 35 34 33 32 32 33 32 29 27 22 19 18 20 18 16
13 14 15 17 21 21 16 10 12 11 12 16 20 23 22 26 28 30 34 34 34 33 33 32 29 30 30 28 28 27 26 22 21 21 19 16 14 15 17 17 15 12 10
13 14 12 12 15 17 18 18 17 13 7 7 10 17 21 23 26 29 30 27 27 27 29 29 24 23 19 17 17 13 10 10 13 15 17 18 18 17 15 12 8 6 4
14 13 12 12 11 12 13 15 17 17 11 6 4 7 12 18 21 21 21 23 25 22 21 20 18 19 15 13 12 11 12 14 18 21 20 18 13 8 5 3 1 4 5
13 14 14 13 13 12 11 14 18 22 20 12 5 1 5 7 9 11 10 10 13 14 15 15 15 15 15 16 14 15 18 18 17 16 14 10 7 4 2 2 4 5 5
13 12 12 12 12 10 10 10 11 12 17 19 18 14 3 8 9 9 9 8 6 6 6 11 14 17 17 19 19 18 15 14 13 10 9 9 7 5 3 1 2 4 5
Wind_Direction
207 203 199 194 208 201 210 207 207 198 202 180 185 191 180 179 168 169 169 174 200 199 195 192 195 185 186 185 187 188 186 183 189 186 197 207 209 209 212 217 220 220 232
199 199 196 194 197 199 195 202 214 214 206 190 185 186 189 190 180 174 174 188 196 191 193 193 192 190 199 195 194 195 196 195 196 191 201 208 220 233 227 221 226 226 225
198 197 198 196 191 192 192 200 199 200 196 192 187 186 187 186 185 182 188 190 191 190 192 193 197 204 202 200 204 204 202 204 211 196 215 212 225 227 232 232 229 239 239
196 197 197 196 194 193 195 199 200 203 194 191 185 182 183 187 195 190 197 198 202 194 201 209 207 202 204 206 214 215 216 218 217 227 224 228 252 284 222 220 239 227 239
195 196 198 197 193 194 198 203 207 197 199 197 196 198 199 194 199 197 201 206 208 208 206 209 214 215 217 215 219 221 230 229 227 231 245 247 253 256 255 260 237 231 230
198 195 194 193 193 195 194 196 206 204 200 200 206 209 204 197 195 197 206 214 211 214 207 212 217 216 217 229 230 232 230 239 235 231 238 239 242 246 247 252 254 258 262
195 191 190 193 192 193 194 194 201 209 210 210 211 202 202 209 201 197 202 207 214 216 211 216 219 220 216 228 233 234 238 245 251 249 251 247 247 252 253 256 254 262 282
193 195 192 194 195 194 195 197 199 202 209 212 210 209 212 213 210 208 211 212 214 216 219 222 220 224 227 225 236 238 238 254 261 258 253 258 252 255 257 259 261 274 276
192 196 195 195 195 197 198 199 200 201 208 214 213 215 211 210 205 209 214 216 215 218 220 227 225 225 225 228 232 235 248 254 258 257 254 252 257 266 263 267 263 268 256
194 195 197 198 197 198 201 201 202 204 206 211 213 214 213 212 211 214 218 221 225 220 222 227 226 230 233 234 235 243 247 251 252 252 253 257 260 262 271 274 273 264 261
196 194 198 201 201 200 199 203 204 204 206 208 210 210 211 215 216 217 217 224 219 224 228 231 227 229 231 232 235 239 240 246 249 251 255 257 256 265 264 264 269 270 255
183 198 200 201 204 205 204 204 206 208 208 208 208 212 215 213 216 218 218 219 220 222 227 222 226 228 230 231 235 238 242 246 247 249 251 256 256 261 266 269 267 267 252
168 201 203 205 208 209 210 210 209 209 209 209 211 212 213 214 219 222 222 220 221 223 223 224 227 229 231 233 235 238 242 243 247 250 250 251 259 259 266 270 268 273 259
358 226 218 218 217 217 217 216 217 214 211 211 213 216 215 216 217 221 222 224 223 226 225 225 228 232 235 237 239 241 244 247 249 249 249 252 263 262 269 271 270 266 264
289 304 252 234 227 225 223 222 222 221 217 217 218 219 223 222 221 221 222 222 224 225 228 229 232 234 235 236 237 241 244 246 248 249 252 258 260 263 265 272 269 266 258
314 330 329 293 243 236 233 229 225 223 221 221 224 222 224 223 223 223 222 223 226 227 228 230 231 234 236 240 244 245 241 243 243 247 259 263 269 270 269 266 265 270 262
329 319 316 310 294 272 248 237 235 229 225 227 227 224 222 224 225 225 224 227 229 229 231 233 232 234 238 244 246 247 246 241 240 244 254 265 269 272 272 267 262 256 256
355 342 329 318 309 317 298 266 244 234 231 230 229 228 226 224 223 225 226 227 226 229 231 234 234 235 240 242 247 249 249 250 250 252 258 265 266 266 265 264 255 250 243
355 355 345 328 319 313 315 306 270 245 240 237 235 231 226 226 222 222 227 227 224 225 228 231 233 237 239 238 240 243 249 252 253 257 260 261 261 261 262 261 247 238 227
347 355 357 350 337 326 322 311 297 271 252 250 246 244 240 235 231 227 225 224 223 225 226 224 223 227 236 241 242 242 248 253 257 259 258 258 257 258 259 251 238 226 215
345 354 1 4 356 349 344 338 324 268 250 255 247 243 240 238 236 233 231 227 219 218 220 223 229 233 235 245 249 248 247 250 251 248 246 246 246 240 232 211 202 203 202
347 359 5 7 0 2 6 338 310 291 262 260 242 226 221 224 221 222 220 221 218 219 222 226 231 233 234 237 245 246 244 241 239 238 230 219 199 195 189 185 190 194 207
355 358 6 15 7 11 10 3 351 327 313 289 264 245 232 228 227 226 227 230 228 224 223 222 221 231 225 226 233 233 222 220 217 196 178 168 168 180 187 191 208 240 260
357 1 5 11 6 21 24 19 7 347 336 315 264 216 214 220 222 223 217 211 220 218 214 214 211 215 207 195 195 193 176 172 173 169 166 170 169 171 169 161 206 261 281
359 3 8 7 8 16 31 45 38 23 4 345 336 79 148 168 172 178 186 189 202 206 220 215 203 199 176 157 153 164 159 158 154 153 147 138 121 110 86 354 325 308 296
3 4 5 9 11 9 9 21 28 31 1 360 5 331 114 115 113 126 138 140 138 144 160 170 173 153 139 127 133 134 126 121 117 117 110 103 99 101 82 32 320 302 300